Regional Weather Roundup
Issued by NWS

Home | Current Version | Previous Version | Graphics & Text | Print | Product List | Glossary On
Versions: 1 2 3 4 5 6 7 8 9 10 11 12 13 14 15 16 17 18 19 20 21 22 23 24 25 26 27 28 29 30 31 32 33 34 35 36 37 38 39 40 41 42 43 44 45 46 47 48 49 50
081
ASUS45 KSLC 291910
RWRUT

UTAH REGIONAL WEATHER ROUNDUP
NATIONAL WEATHER SERVICE SALT LAKE CITY UT
100 PM MDT WED MAR 29 2017

UTZ001>011-023>025-292000-

NORTHERN UTAH

CITY           SKY/WX    TMP DP  RH WIND       PRES   REMARKS
BRIGHAM CITY   SUNNY     50  28  41 CALM      30.23F
DUGWAY         MOSUNNY   51  32  47 VRB1      30.23F
HILL AFB       SUNNY     49  27  43 SW6       30.22F
LOGAN          SUNNY     51  31  46 VRB6      30.22F
OGDEN          SUNNY     50  30  46 S7        30.21F
SALT LAKE CITY MOSUNNY   52  30  43 NW3       30.22F
TOOELE VALLEY  SUNNY     52  36  54 N7        30.23F
WENDOVER       SUNNY     51  31  46 SE8       30.23
HEBER CITY     SUNNY     48  23  37 CALM      30.20F
WEST JORDAN    SUNNY     54  39  57 CALM      30.22F

$$

UTZ011>015-024>027-292000-

CENTRAL/NORTHEAST UTAH

CITY           SKY/WX    TMP DP  RH WIND       PRES   REMARKS
PROVO AIRPORT  SUNNY     48  31  51 VRB7      30.24F
MOAB/CANYONLAN SUNNY     58  27  30 NW10      30.12F
DELTA          SUNNY     48  27  43 CALM      30.23F
PRICE          SUNNY     53  21  28 W5        30.16F
RICHFIELD      SUNNY     50  28  43 N7        30.23F
ROOSEVELT      SUNNY     50  28  43 CALM      30.19F
VERNAL         SUNNY     50  26  39 S9        30.17F

$$

UTZ013>016-019>022-027-292000-

SOUTHERN UTAH

CITY           SKY/WX    TMP DP  RH WIND       PRES   REMARKS
BRYCE CANYON   SUNNY     52  22  30 N10G18    30.20F
CEDAR CITY     SUNNY     52  28  39 VRB3      30.21F
MILFORD        SUNNY     52  31  44 N10       30.22F
ST GEORGE      CLEAR     63  25  23 VRB5      30.14F
HANKSVILLE     SUNNY     61  19  20 N6        30.16F
KANAB          SUNNY     61  21  21 E6        30.19F
BLANDING       SUNNY     58  26  28 NW12G17   30.15S

$$

REGIONAL REPORTS     COLORADO/ARIZONA

CITY           SKY/WX    TMP DP  RH WIND       PRES   REMARKS
CRAIG, CO      PTSUNNY   45  30  55 W12G20    30.17F
GRAND JUNCTION SUNNY     58  28  32 W10G16    30.11F
RIFLE, CO      SUNNY     54  27  35 NW13      30.12F
MONTROSE, CO   MOSUNNY   51  32  48 CALM      30.13F
CORTEZ, CO     SUNNY     57  26  30 N13       30.04F
COLORADO CITY    N/A     61  23  23 S6        30.19F
PAGE, AZ       SUNNY     61  20  20 VRB6      30.13F
GRAND CANYON   SUNNY     55  18  23 NE10      30.18F
KINGMAN, AZ    SUNNY     65   3   8 NE12      30.13F
FLAGSTAFF, AZ  SUNNY     56  12  17 NE16G23   30.16S

$$

REGIONAL REPORTS    NEVADA/IDAHO/WYOMING

CITY           SKY/WX    TMP DP  RH WIND       PRES   REMARKS
LAS VEGAS, NV  PTSUNNY   70  21  15 VRB3      30.14F
ELY, NY        SUNNY     49  26  41 CALM      30.23F
ELKO, NV       SUNNY     53  29  39 W12       30.22F
POCATELLO, ID  CLOUDY    53  33  46 SW13G22   30.18F
BURLEY, ID     CLOUDY    54  30  40 VRB7      30.16F
FORT BRIDGER,    N/A     49  23  36 W12G17    30.22F
EVANSTON, WY   SUNNY     45  24  43 W10       30.21F
ROCK SPRINGS,  SUNNY     42  26  53 SW14      30.16F
KEMMERER, WY     N/A     37  27  65 W18G26    30.18F WCI  27

$$




USA.gov is the U.S. government's official web portal to all federal, state and local government web resources and services.